Date String (YYYY-MM-DD hh:mm:ss) UTC,Instrument flags,Ambient pressure (hPa),Sample flow (lpm),Bypass flow (lpm),Sample temperature (°C),Ambient temperature (°C),ASC tube jacket temperature (°C),LED temperature (°C),Box temperature (°C),Sample RH (%),Span deviation,Mass concentration (μg/m³),Mass concentration (μg/m³),Mass concentration (μg/m³)
DateTimeUTC,F1_M11,P_M11,Q1_M11,Q2_M11,T1_M11,T2_M11,T3_M11,T4_M11,T5_M11,U1_M11,ZSPAN_M11,X2_M11,X0_M11,X1_M11
2022-08-18 11:00:00,,0830.8,5.00,0.00,29.8,28.6,00.0,38.6,31.7,16.1,0000.0,0005.28,0008.60,0004.98
2022-08-18 11:01:00,,0830.7,5.00,0.00,29.9,28.6,00.0,38.6,31.7,16.1,0000.0,0005.29,0008.60,0005.00
2022-08-18 11:02:00,,0830.8,4.99,0.00,29.9,28.7,00.0,38.6,31.7,16.0,0000.0,0005.30,0008.58,0005.01
2022-08-18 11:03:00,,0830.8,5.00,0.00,29.9,28.7,00.0,38.7,31.8,16.0,0000.0,0005.31,0007.99,0005.04
2022-08-18 11:04:00,,0830.7,5.00,0.00,29.9,28.7,00.0,38.7,31.7,15.9,0000.0,0005.32,0007.90,0005.06
2022-08-18 11:05:00,,0830.7,5.00,0.00,29.9,28.7,00.0,38.7,31.8,15.9,0000.0,0005.34,0007.94,0005.08
2022-08-18 11:06:00,,0830.6,5.00,0.00,29.9,28.7,00.0,38.7,31.8,15.9,0000.0,0005.37,0008.41,0005.09
2022-08-18 11:07:00,,0830.6,5.00,0.00,29.9,28.7,00.0,38.7,31.8,15.9,0000.0,0005.40,0008.57,0005.10
2022-08-18 11:08:00,,0830.6,5.00,0.00,29.9,28.8,00.0,38.7,31.8,15.9,0000.0,0005.41,0008.46,0005.10
2022-08-18 11:09:00,,0830.6,5.00,0.00,29.9,28.8,00.0,38.7,31.8,15.9,0000.0,0005.42,0008.38,0005.10
2022-08-18 11:10:00,,0830.6,4.99,0.00,29.9,28.8,00.0,38.7,31.8,16.0,0000.0,0005.42,0008.51,0005.11
2022-08-18 11:11:00,,0830.6,5.00,0.00,29.9,28.8,00.0,38.7,31.8,16.1,0000.0,0005.44,0008.62,0005.11
2022-08-18 11:12:00,,0830.6,5.00,0.00,30.0,28.8,00.0,38.7,31.9,16.1,0000.0,0005.48,0008.75,0005.12
2022-08-18 11:13:00,,0830.6,5.01,0.00,30.0,28.8,00.0,38.7,31.9,16.1,0000.0,0005.52,0008.97,0005.15
2022-08-18 11:14:00,,0830.6,5.01,0.00,30.0,28.8,00.0,38.7,31.9,16.0,0000.0,0005.55,0009.13,0005.16
2022-08-18 11:15:00,,0830.6,5.00,0.00,30.0,28.9,00.0,38.7,31.9,15.9,0000.0,0005.59,0009.23,0005.17
2022-08-18 11:16:00,,0830.7,4.99,0.00,30.0,28.9,00.0,38.7,31.9,15.8,0000.0,0005.61,0009.31,0005.19
2022-08-18 11:17:00,,0830.6,5.00,0.00,30.0,28.9,00.0,38.7,31.9,15.9,0000.0,0005.62,0009.04,0005.22
2022-08-18 11:18:00,,0830.6,5.00,0.00,30.0,28.9,00.0,38.7,31.9,15.8,0000.0,0005.65,0008.80,0005.24
2022-08-18 11:19:00,,0830.6,5.00,0.00,30.0,28.9,00.0,38.7,31.9,15.8,0000.0,0005.69,0008.83,0005.27
2022-08-18 11:20:00,,0830.6,5.00,0.00,30.0,28.9,00.0,38.8,31.9,15.8,0000.0,0005.72,0008.83,0005.29
2022-08-18 11:21:00,,0830.6,5.00,0.00,30.0,28.9,00.0,38.8,31.9,15.5,0000.0,0005.73,0008.85,0005.31
2022-08-18 11:22:00,,0830.6,5.00,0.00,30.1,28.9,00.0,38.8,31.9,15.7,0000.0,0005.73,0008.74,0005.35
2022-08-18 11:23:00,,0830.6,5.01,0.00,30.1,29.0,00.0,38.8,32.0,15.6,0000.0,0005.73,0008.72,0005.36
2022-08-18 11:24:00,,0830.6,5.00,0.00,30.1,29.0,00.0,38.8,32.0,15.8,0000.0,0005.72,0008.57,0005.38
2022-08-18 11:25:00,,0830.6,5.00,0.00,30.1,29.0,00.0,38.8,32.0,15.9,0000.0,0005.71,0008.38,0005.38
2022-08-18 11:26:00,,0830.5,4.99,0.00,30.1,29.0,00.0,38.8,32.0,15.7,0000.0,0005.71,0008.33,0005.39
2022-08-18 11:27:00,,0830.5,5.01,0.00,30.1,29.0,00.0,38.8,32.0,15.5,0000.0,0005.74,0008.32,0005.40
2022-08-18 11:28:00,,0830.5,5.00,0.00,30.1,29.0,00.0,38.8,32.0,15.5,0000.0,0005.73,0008.30,0005.39
2022-08-18 11:29:00,,0830.6,5.00,0.00,30.1,29.0,00.0,38.9,32.0,15.5,0000.0,0005.74,0008.38,0005.41
2022-08-18 11:30:00,,0830.6,5.00,0.00,30.1,29.0,00.0,38.9,32.0,15.4,0000.0,0005.73,0009.12,0005.41
2022-08-18 11:31:00,,0830.6,4.99,0.00,30.1,29.0,00.0,38.9,32.0,15.5,0000.0,0005.73,0009.43,0005.43
2022-08-18 11:32:00,,0830.6,5.00,0.00,30.1,29.0,00.0,38.9,32.0,15.6,0000.0,0005.75,0009.49,0005.44
2022-08-18 11:33:00,,0830.6,5.00,0.00,30.2,29.1,00.0,38.9,32.0,15.8,0000.0,0005.75,0009.37,0005.44
2022-08-18 11:34:00,,0830.6,5.00,0.00,30.2,29.1,00.0,38.9,32.0,15.7,0000.0,0005.77,0009.43,0005.44
2022-08-18 11:35:00,,0830.6,5.01,0.00,30.2,29.1,00.0,38.9,32.1,15.7,0000.0,0005.77,0009.86,0005.45
2022-08-18 11:36:00,,0830.6,4.99,0.00,30.2,29.1,00.0,38.9,32.1,15.7,0000.0,0005.76,0009.87,0005.45
2022-08-18 11:37:00,,0830.6,5.00,0.00,30.2,29.1,00.0,38.9,32.1,15.8,0000.0,0005.77,0009.91,0005.46
2022-08-18 11:38:00,,0830.6,5.00,0.00,30.2,29.1,00.0,38.9,32.1,15.7,0000.0,0005.73,0009.81,0005.46
2022-08-18 11:39:00,,0830.6,5.01,0.00,30.2,29.1,00.0,39.0,32.1,15.8,0000.0,0005.74,0009.86,0005.47
2022-08-18 11:40:00,,0830.6,5.01,0.00,30.2,29.1,00.0,39.0,32.1,16.0,0000.0,0005.75,0009.98,0005.47
2022-08-18 11:41:00,,0830.6,5.00,0.00,30.3,29.1,00.0,39.0,32.1,16.0,0000.0,0005.78,0009.68,0005.47
2022-08-18 11:42:00,,0830.6,5.01,0.00,30.3,29.1,00.0,39.0,32.1,15.9,0000.0,0005.81,0009.19,0005.47
2022-08-18 11:43:00,,0830.6,5.00,0.00,30.3,29.1,00.0,39.0,32.1,15.9,0000.0,0005.79,0009.35,0005.47
2022-08-18 11:44:00,,0830.6,4.99,0.00,30.3,29.2,00.0,39.0,32.1,16.2,0000.0,0005.80,0009.90,0005.48
2022-08-18 11:45:00,,0830.6,5.01,0.00,30.3,29.2,00.0,39.0,32.1,16.2,0000.0,0005.81,0009.92,0005.48
2022-08-18 11:46:00,,0830.7,5.01,0.00,30.3,29.2,00.0,39.0,32.1,16.3,0000.0,0005.83,0009.62,0005.49
2022-08-18 11:47:00,,0830.8,4.98,0.00,30.3,29.2,00.0,39.0,32.1,16.6,0000.0,0005.87,0009.73,0005.50
2022-08-18 11:48:00,,0830.8,5.00,0.00,30.3,29.2,00.0,39.0,32.2,16.9,0000.0,0005.85,0009.77,0005.50
2022-08-18 11:49:00,,0830.8,5.00,0.00,30.3,29.2,00.0,39.1,32.2,16.7,0000.0,0005.88,0009.83,0005.50
2022-08-18 11:50:00,,0830.7,5.01,0.00,30.3,29.3,00.0,39.1,32.2,16.6,0000.0,0005.88,0010.04,0005.48
2022-08-18 11:51:00,,0830.8,5.00,0.00,30.3,29.3,00.0,39.1,32.2,17.8,0000.0,0005.87,0010.24,0005.47
2022-08-18 11:52:00,,0830.7,5.00,0.00,30.4,29.3,00.0,39.1,32.2,17.6,0000.0,0005.85,0010.00,0005.45
2022-08-18 11:53:00,,0830.8,4.99,0.00,30.4,29.3,00.0,39.1,32.2,17.0,0000.0,0005.83,0010.04,0005.44
2022-08-18 11:54:00,,0830.7,5.00,0.00,30.4,29.3,00.0,39.1,32.2,16.9,0000.0,0005.82,0010.27,0005.42
2022-08-18 11:55:00,,0830.8,5.00,0.00,30.4,29.3,00.0,39.1,32.2,16.7,0000.0,0005.84,0009.81,0005.41
2022-08-18 11:56:00,,0830.8,4.99,0.00,30.4,29.3,00.0,39.1,32.2,16.4,0000.0,0005.83,0009.81,0005.41
2022-08-18 11:57:00,,0830.9,5.00,0.00,30.4,29.3,00.0,39.1,32.2,16.3,0000.0,0005.83,0009.80,0005.41
2022-08-18 11:58:00,,0830.9,5.00,0.00,30.4,29.4,00.0,39.2,32.3,16.0,0000.0,0005.81,0009.70,0005.40
2022-08-18 11:59:00,,0830.9,4.99,0.00,30.4,29.4,00.0,39.2,32.3,16.2,0000.0,0005.84,0009.61,0005.41
